This is the latest recevied weather packets stored in our database for station/object EA1JAV-10. If no packets are shown the sender has not sent any weather packets the latest 10 day(s).
| Time | Temp. | Humidity | Pressure | Rain* | Wind** | Luminosity | Snow |
|---|---|---|---|---|---|---|---|
| 1778140609 | 16.67° C | 46% | 996.8 hPa | - | - | - | - |
| 1778138809 | 17.22° C | 46% | 997 hPa | - | - | - | - |
| 1778137009 | 17.22° C | 46% | 997.1 hPa | - | - | - | - |
| 1778135209 | 17.22° C | 46% | 997.1 hPa | - | - | - | - |
| 1778133408 | 16.67° C | 46% | 997.2 hPa | - | - | - | - |
| 1778131608 | 16.67° C | 46% | 998.2 hPa | - | - | - | - |
| 1778129808 | 16.67° C | 46% | 997.2 hPa | - | - | - | - |
| 1778128007 | 17.22° C | 45% | 997.5 hPa | - | - | - | - |
| 1778124406 | 17.22° C | 46% | 997.6 hPa | - | - | - | - |
| 1778122606 | 17.22° C | 46% | 997.6 hPa | - | - | - | - |
| 1778120806 | 17.78° C | 45% | 997.8 hPa | - | - | - | - |
| 1778119006 | 17.78° C | 46% | 998 hPa | - | - | - | - |
| 1778117205 | 17.78° C | 45% | 998.2 hPa | - | - | - | - |
| 1778115405 | 17.78° C | 45% | 998.4 hPa | - | - | - | - |
| 1778113605 | 18.33° C | 45% | 998.6 hPa | - | - | - | - |
| 1778111804 | 18.33° C | 45% | 998.9 hPa | - | - | - | - |
| 1778110004 | 18.33° C | 45% | 999.1 hPa | - | - | - | - |
| 1778108204 | 18.33° C | 45% | 999.1 hPa | - | - | - | - |
| 1778106404 | 18.89° C | 45% | 999.3 hPa | - | - | - | - |
| 1778104604 | 18.89° C | 45% | 999.5 hPa | - | - | - | - |
| 1778102804 | 19.44° C | 45% | 999.7 hPa | - | - | - | - |
| 1778101004 | 19.44° C | 44% | 999.7 hPa | - | - | - | - |
| 1778099203 | 20° C | 44% | 999.5 hPa | - | - | - | - |
| 1778097403 | 20° C | 44% | 999.4 hPa | - | - | - | - |
| 1778095603 | 19.44° C | 44% | 999.2 hPa | - | - | - | - |
* Rain since midnight (hover to see other rain measurements)
** Current wind speed in m/s (hover to see current wind gust speed)